GPS BIIR-2 (PRN 13) 1 24876U 97035A 25302.35905209 .00000080 00000+0 00000+0 0 9992 2 24876 55.8725 107.6047 0096261 56.9071 304.0375 2.00563307207320 GPS BIIR-4 (PRN 20) 1 26360U 00025A 25302.99639977 -.00000069 00000+0 00000+0 0 9999 2 26360 55.0202 28.6076 0038198 237.8737 314.2944 2.00571274186659 GPS BIIR-5 (PRN 22) 1 26407U 00040A 25303.70730023 -.00000007 00000+0 00000+0 0 9994 2 26407 54.9029 224.2793 0128418 300.9428 244.2715 2.00567334185345 GPS BIIR-8 (PRN 16) 1 27663U 03005A 25303.77742904 -.00000007 00000+0 00000+0 0 9991 2 27663 54.9359 224.0864 0145540 51.1990 319.8569 2.00573196166716 GPS BIIR-11 (PRN 19) 1 28190U 04009A 25303.04317751 -.00000004 00000+0 00000+0 0 9997 2 28190 55.0241 284.9796 0107636 166.7401 194.5914 2.00562458158337 GPS BIIR-13 (PRN 02) 1 28474U 04045A 25302.96196524 -.00000050 00000+0 00000+0 0 9996 2 28474 55.2611 334.1679 0169387 307.4494 54.3757 2.00567534153816 GPS BIIRM-1 (PRN 17) 1 28874U 05038A 25302.51225402 -.00000002 00000+0 00000+0 0 9999 2 28874 55.0707 282.4811 0133579 292.4601 65.4914 2.00551151147206 GPS BIIRM-2 (PRN 31) 1 29486U 06042A 25302.89601156 .00000065 00000+0 00000+0 0 9998 2 29486 54.6894 160.4813 0107141 50.7443 127.3706 2.00555782139774 GPS BIIRM-3 (PRN 12) 1 29601U 06052A 25302.57458009 -.00000004 00000+0 00000+0 0 9994 2 29601 54.9814 223.1504 0086421 87.0757 273.9420 2.00570610138788 GPS BIIRM-4 (PRN 15) 1 32260U 07047A 25301.88202094 .00000044 00000+0 00000+0 0 9991 2 32260 53.9236 89.6112 0164717 84.5785 277.3028 2.00566372132177 GPS BIIRM-5 (PRN 29) 1 32384U 07062A 25303.69747265 -.00000005 00000+0 00000+0 0 9998 2 32384 55.2199 283.3719 0032260 163.7145 196.7678 2.00575178130919 GPS BIIRM-6 (PRN 07) 1 32711U 08012A 25302.79935062 .00000066 00000+0 00000+0 0 9998 2 32711 54.4699 159.1277 0201107 244.5305 113.4598 2.00563608129136 GPS BIIRM-8 (PRN 05) 1 35752U 09043A 25303.77221395 -.00000060 00000+0 00000+0 0 9992 2 35752 56.0624 36.4775 0053173 82.2830 278.1239 2.00568226118756 GPS BIIF-1 (PRN 25) 1 36585U 10022A 25301.13463627 .00000002 00000+0 00000+0 0 9995 2 36585 54.3094 217.9124 0123854 64.5670 311.8329 2.00550810112946 GPS BIIF-3 (PRN 24) 1 38833U 12053A 25302.97685471 .00000074 00000+0 00000+0 0 9994 2 38833 53.5493 153.0315 0174170 63.2489 298.6082 2.00564632 94822 GPS BIIF-4 (PRN 27) 1 39166U 13023A 25302.34195837 -.00000001 00000+0 00000+0 0 9996 2 39166 54.6903 278.3723 0135276 48.2306 312.9161 2.00565334 91251 GPS BIIF-5 (PRN 30) 1 39533U 14008A 25300.84247950 .00000047 00000+0 00000+0 0 9994 2 39533 53.6234 158.7971 0078410 226.1490 133.2855 2.00571812 85028 GPS BIIF-6 (PRN 06) 1 39741U 14026A 25302.11980896 -.00000058 00000+0 00000+0 0 9993 2 39741 56.5996 340.5131 0037615 317.0074 42.7588 2.00564553 83901 GPS BIIF-7 (PRN 09) 1 40105U 14045A 25302.70813687 .00000067 00000+0 00000+0 0 9997 2 40105 55.2009 97.6555 0033327 118.5747 241.7749 2.00569885 81456 GPS BIIF-8 (PRN 03) 1 40294U 14068A 25297.59791060 -.00000070 00000+0 00000+0 0 9996 2 40294 56.8228 40.0465 0061220 69.8875 290.7820 2.00561963 80485 GPS BIIF-9 (PRN 26) 1 40534U 15013A 25303.71174519 -.00000002 00000+0 00000+0 0 9995 2 40534 53.2068 213.6717 0104891 37.3420 323.4239 2.00565090 77222 GPS BIIF-10 (PRN 08) 1 40730U 15033A 25302.87631161 -.00000004 00000+0 00000+0 0 9994 2 40730 54.1680 276.5769 0108198 25.8366 334.6961 2.00567806 75377 GPS BIIF-11 (PRN 10) 1 41019U 15062A 25302.43672905 -.00000053 00000+0 00000+0 0 9994 2 41019 56.8017 39.7159 0109200 228.8210 130.2566 2.00567059 73202 GPS BIIF-12 (PRN 32) 1 41328U 16007A 25302.51854561 .00000068 00000+0 00000+0 0 9991 2 41328 55.3813 98.6118 0090066 242.7206 116.3739 2.00563078 71214 GPS BIII-1 (PRN 04) 1 43873U 18109A 25302.68181317 .00000073 00000+0 00000+0 0 9999 2 43873 55.5411 101.2867 0036581 193.5816 179.4666 2.00552486 50454 GPS BIII-2 (PRN 18) 1 44506U 19056A 25302.54825579 -.00000058 00000+0 00000+0 0 9999 2 44506 55.7373 340.3092 0057552 197.4125 334.3268 2.00564972 45446 GPS BIII-3 (PRN 23) 1 45854U 20041A 25302.37822872 -.00000056 00000+0 00000+0 0 9994 2 45854 56.5163 37.9143 0059343 201.5300 152.1079 2.00562923 39406 GPS BIII-4 (PRN 14) 1 46826U 20078A 25289.20312859 -.00000051 00000+0 00000+0 0 9994 2 46826 54.0306 220.6753 0063294 203.5880 326.5084 2.00567133 36612 GPS BIII-5 (PRN 11) 1 48859U 21054A 25289.21780061 -.00000094 00000+0 00000+0 0 9999 2 48859 55.2757 342.2645 0024066 230.1125 138.8161 2.00556506 31860 GPS BIII-6 (PRN 28) 1 55268U 23009A 25302.36309046 .00000064 00000+0 00000+0 0 9991 2 55268 55.0993 157.5890 0003539 2.3519 179.5393 2.00559368 20618 GPS BIII-7 (PRN 01) 1 62339U 24242A 25302.51394042 -.00000063 00000+0 00000+0 0 9995 2 62339 54.9365 343.5339 0009778 342.2294 24.5850 2.00566907 6638 GPS BIII-8 (PRN 21) 1 64202U 25116A 25303.24040024 -.00000054 00000+0 00000+0 0 9996 2 64202 55.0743 40.3989 0003486 301.3489 60.6839 2.00561160 3266